When you browse on this site, cookies collect data to enhance your experience and personalize the content and advertising you see.
Visit our Privacy Policy to learn more. By continuing to use the site, you agree to this use of cookies and data.
  • In Hungary
  • List of Countries
  • For 7 days
  • Water Temperature
  • Satellite Maps
  • Weather Map
  • News
  • Weather Widgets
  • user-avatar
    Login

    Hourly Weather Asse

    Today, 20 January, Sunday

    Time Temperature Precipitation Wind Pressure Humidity
    00:00 -3°C° 0 mm 2 mps 755 mmHg 72%
    01:00 -3°C° 0 mm 2 mps 755 mmHg 71%
    02:00 -3°C° 0 mm 2 mps 755 mmHg 71%
    03:00 -3°C° 0 mm 2 mps 755 mmHg 71%
    04:00 -3°C° 0 mm 2 mps 756 mmHg 70%
    05:00 -3°C° 0 mm 2 mps 756 mmHg 69%
    06:00 -3°C° 0 mm 2 mps 756 mmHg 69%
    07:00 -3°C° 0 mm 2 mps 757 mmHg 67%
    08:00 -3°C° 0 mm 2 mps 757 mmHg 65%
    09:00 -2°C° 0 mm 2 mps 757 mmHg 62%
    10:00 -1°C° 0 mm 2 mps 758 mmHg 58%
    11:00 +1°C° 0 mm 2 mps 758 mmHg 53%
    12:00 +2°C° 0 mm 2 mps 758 mmHg 49%
    13:00 +2°C° 0 mm 2 mps 758 mmHg 50%
    14:00 +2°C° 0 mm 2 mps 758 mmHg 52%
    15:00 +2°C° 0 mm 2 mps 759 mmHg 53%
    16:00 +1°C° 0 mm 2 mps 759 mmHg 56%
    17:00 -1°C° 0 mm 2 mps 760 mmHg 59%
    18:00 -2°C° 0 mm 2 mps 760 mmHg 62%
    19:00 -2°C° 0 mm 2 mps 761 mmHg 62%
    20:00 -3°C° 0 mm 2 mps 761 mmHg 62%
    21:00 -3°C° 0 mm 2 mps 762 mmHg 62%
    22:00 -3°C° 0 mm 2 mps 762 mmHg 62%
    23:00 -1°C° 0 mm 1 mps 763 mmHg 61%

    Tomorrow, 21 January, Monday

    Time Temperature Precipitation Wind Pressure Humidity
    00:00 -1°C° 0 mm 1 mps 763 mmHg 61%
    01:00 -1°C° 0 mm 1 mps 763 mmHg 60%
    02:00 -1°C° 0 mm 1 mps 763 mmHg 59%
    03:00 -1°C° 0 mm 1 mps 763 mmHg 58%
    04:00 -2°C° 0 mm 0 mps 763 mmHg 57%
    05:00 -2°C° 0 mm 0 mps 763 mmHg 57%
    06:00 -2°C° 0 mm 0 mps 763 mmHg 56%
    07:00 -2°C° 0 mm 0 mps 763 mmHg 54%
    08:00 -1°C° 0 mm 0 mps 764 mmHg 52%
    09:00 -1°C° 0 mm 0 mps 764 mmHg 49%
    10:00 0°C° 0 mm 0 mps 763 mmHg 46%
    11:00 +2°C° 0 mm 1 mps 763 mmHg 43%
    12:00 +3°C° 0 mm 1 mps 763 mmHg 40%
    13:00 +3°C° 0 mm 1 mps 763 mmHg 42%
    14:00 +3°C° 0 mm 1 mps 762 mmHg 45%
    15:00 +3°C° 0 mm 1 mps 762 mmHg 47%
    16:00 +2°C° 0 mm 1 mps 761 mmHg 50%
    17:00 -1°C° 0 mm 2 mps 761 mmHg 52%
    18:00 -2°C° 0 mm 2 mps 761 mmHg 55%
    19:00 -2°C° 0 mm 2 mps 760 mmHg 56%
    20:00 -2°C° 0 mm 3 mps 760 mmHg 58%
    21:00 -4°C° 0 mm 3 mps 759 mmHg 60%
    22:00 -3°C° 0 mm 4 mps 758 mmHg 59%
    23:00 -3°C° 0 mm 4 mps 758 mmHg 58%

    Day after tomorrow, 22 January, Tuesday

    Time Temperature Precipitation Wind Pressure Humidity
    00:00 -4°C° 0 mm 5 mps 757 mmHg 57%
    01:00 -4°C° 0 mm 5 mps 756 mmHg 56%
    02:00 -3°C° 0 mm 6 mps 754 mmHg 54%
    03:00 -3°C° 0 mm 6 mps 753 mmHg 53%
    04:00 -3°C° 0 mm 7 mps 752 mmHg 54%
    05:00 -3°C° 0 mm 7 mps 751 mmHg 55%
    06:00 -3°C° 0 mm 7 mps 749 mmHg 56%
    07:00 -3°C° 0.6 mm 7 mps 749 mmHg 67%
    08:00 -4°C° 0.6 mm 8 mps 748 mmHg 78%
    09:00 -5°C° 0.6 mm 8 mps 748 mmHg 89%
    10:00 -3°C° 0.7 mm 7 mps 747 mmHg 89%
    11:00 -3°C° 0.7 mm 7 mps 746 mmHg 89%
    12:00 -2°C° 0.7 mm 6 mps 746 mmHg 90%
    13:00 -1°C° 0.7 mm 5 mps 746 mmHg 92%
    14:00 -1°C° 0.7 mm 4 mps 745 mmHg 94%
    15:00 +1°C° 0.7 mm 2 mps 745 mmHg 96%
    16:00 -1°C° 0.4 mm 2 mps 745 mmHg 95%
    17:00 -1°C° 0.4 mm 2 mps 745 mmHg 94%
    18:00 +1°C° 0.4 mm 1 mps 745 mmHg 92%
    19:00 -1°C° 0.1 mm 2 mps 745 mmHg 91%
    20:00 -1°C° 0.1 mm 2 mps 745 mmHg 90%
    21:00 -1°C° 0.1 mm 2 mps 745 mmHg 89%
    22:00 -1°C° 0.1 mm 2 mps 745 mmHg 89%
    23:00 -1°C° 0.1 mm 2 mps 745 mmHg 89%

    23 January, Wednesday

    Time Temperature Precipitation Wind Pressure Humidity
    00:00 -1°C° 0.1 mm 2 mps 745 mmHg 89%
    01:00 -1°C° 0 mm 2 mps 745 mmHg 89%
    02:00 -1°C° 0 mm 2 mps 745 mmHg 89%
    03:00 -2°C° 0 mm 2 mps 746 mmHg 89%
    04:00 -2°C° 0 mm 2 mps 746 mmHg 89%
    05:00 -2°C° 0 mm 2 mps 746 mmHg 89%
    06:00 -3°C° 0 mm 2 mps 746 mmHg 89%
    07:00 -2°C° 0 mm 2 mps 747 mmHg 88%
    08:00 0°C° 0 mm 1 mps 747 mmHg 88%
    09:00 0°C° 0 mm 1 mps 748 mmHg 87%
    10:00 +1°C° 0 mm 1 mps 748 mmHg 90%
    11:00 +2°C° 0 mm 1 mps 748 mmHg 93%
    12:00 +3°C° 0 mm 1 mps 749 mmHg 95%
    13:00 +3°C° 0 mm 1 mps 749 mmHg 94%
    14:00 +3°C° 0 mm 1 mps 749 mmHg 92%
    15:00 +3°C° 0 mm 1 mps 749 mmHg 90%
    16:00 +2°C° 0 mm 1 mps 750 mmHg 90%
    17:00 +1°C° 0 mm 1 mps 750 mmHg 89%
    18:00 -1°C° 0 mm 2 mps 751 mmHg 89%
    19:00 -1°C° 0 mm 2 mps 752 mmHg 90%
    20:00 -1°C° 0 mm 2 mps 752 mmHg 90%
    21:00 -1°C° 0 mm 2 mps 753 mmHg 91%
    22:00 -1°C° 0 mm 2 mps 753 mmHg 91%
    23:00 -1°C° 0 mm 2 mps 753 mmHg 91%

    24 January, Thursday

    Time Temperature Precipitation Wind Pressure Humidity
    00:00 -1°C° 0 mm 2 mps 753 mmHg 91%
    01:00 -1°C° 0 mm 2 mps 754 mmHg 90%
    02:00 -1°C° 0 mm 3 mps 754 mmHg 90%
    03:00 -1°C° 0 mm 3 mps 754 mmHg 89%
    04:00 -2°C° 0 mm 3 mps 754 mmHg 89%
    05:00 -2°C° 0 mm 3 mps 754 mmHg 88%
    06:00 -2°C° 0 mm 3 mps 754 mmHg 88%
    07:00 -2°C° 0 mm 2 mps 754 mmHg 87%
    08:00 -2°C° 0 mm 2 mps 755 mmHg 86%
    09:00 -2°C° 0 mm 2 mps 755 mmHg 85%
    10:00 -1°C° 0 mm 2 mps 755 mmHg 87%
    11:00 -1°C° 0 mm 2 mps 755 mmHg 88%
    12:00 +1°C° 0 mm 2 mps 755 mmHg 89%
    13:00 +1°C° 0 mm 2 mps 755 mmHg 90%
    14:00 +1°C° 0 mm 2 mps 755 mmHg 91%
    15:00 +1°C° 0 mm 2 mps 755 mmHg 92%
    16:00 -1°C° 0 mm 2 mps 756 mmHg 93%
    17:00 -1°C° 0 mm 2 mps 756 mmHg 93%
    18:00 0°C° 0 mm 1 mps 757 mmHg 93%
    19:00 0°C° 0 mm 1 mps 757 mmHg 93%
    20:00 0°C° 0 mm 1 mps 758 mmHg 93%
    21:00 -1°C° 0 mm 1 mps 758 mmHg 93%
    22:00 -1°C° 0 mm 1 mps 758 mmHg 93%
    23:00 -1°C° 0 mm 1 mps 759 mmHg 93%

    25 January, Friday

    Time Temperature Precipitation Wind Pressure Humidity
    00:00 -1°C° 0 mm 1 mps 759 mmHg 93%
    01:00 -1°C° 0 mm 1 mps 759 mmHg 93%
    02:00 -2°C° 0 mm 0 mps 760 mmHg 93%
    03:00 -2°C° 0 mm 0 mps 760 mmHg 93%
    04:00 -2°C° 0 mm 0 mps 760 mmHg 92%
    05:00 -2°C° 0 mm 0 mps 761 mmHg 92%
    06:00 -2°C° 0 mm 0 mps 761 mmHg 92%
    07:00 -2°C° 0 mm 0 mps 762 mmHg 92%
    08:00 -1°C° 0 mm 1 mps 762 mmHg 91%
    09:00 0°C° 0 mm 1 mps 763 mmHg 90%
    10:00 +1°C° 0 mm 1 mps 763 mmHg 90%
    11:00 +1°C° 0 mm 1 mps 763 mmHg 90%
    12:00 +2°C° 0 mm 1 mps 763 mmHg 90%
    13:00 +2°C° 0 mm 1 mps 763 mmHg 91%
    14:00 +2°C° 0 mm 1 mps 763 mmHg 91%
    15:00 +2°C° 0 mm 1 mps 763 mmHg 92%
    16:00 -1°C° 0 mm 2 mps 764 mmHg 92%
    17:00 -2°C° 0 mm 2 mps 764 mmHg 92%
    18:00 -2°C° 0 mm 2 mps 764 mmHg 92%
    19:00 -2°C° 0 mm 3 mps 764 mmHg 91%
    20:00 -2°C° 0 mm 3 mps 764 mmHg 90%
    21:00 -4°C° 0 mm 3 mps 764 mmHg 90%
    22:00 -3°C° 0 mm 4 mps 764 mmHg 88%
    23:00 -3°C° 0 mm 4 mps 764 mmHg 87%
    Show more